| time (UTC) | temp F | wind direction | speed MPH | gust MPH | rain 1hr in | rain 24hr in | rain mn in | humidity % | barometer mb |
| 20260902200929 | 71 | 134 | 3.0 | 5.0 | 0.00 | 0.42 | 0.42 | 95 | 1017.7 |
| 20260902200424 | 71 | 113 | 2.0 | 3.0 | 0.00 | 0.42 | 0.42 | 95 | 1017.8 |
| 20260902195919 | 71 | 124 | 3.0 | 5.0 | 0.00 | 0.42 | 0.42 | 95 | 1017.8 |
| 20260902195414 | 71 | 169 | 7.0 | 8.0 | 0.00 | 0.42 | 0.42 | 95 | 1017.8 |
| 20260902194909 | 71 | 101 | 5.0 | 7.0 | 0.00 | 0.42 | 0.42 | 95 | 1017.7 |
| 20260902194408 | 71 | 131 | 3.0 | 3.0 | 0.00 | 0.42 | 0.42 | 95 | 1018.1 |
| 20260902193903 | 71 | 132 | 3.0 | 3.0 | 0.00 | 0.42 | 0.42 | 95 | 1018.3 |
| 20260902193359 | 71 | 101 | 3.0 | 5.0 | 0.00 | 0.42 | 0.42 | 95 | 1018.2 |
| 20260902192858 | 71 | 127 | 4.0 | 6.0 | 0.00 | 0.42 | 0.42 | 95 | 1018.4 |
| 20260902192357 | 71 | 124 | 3.0 | 3.0 | 0.00 | 0.42 | 0.42 | 95 | 1018.2 |
| 20260902191851 | 71 | 167 | 4.0 | 5.0 | 0.00 | 0.42 | 0.42 | 95 | 1018.2 |
| 20260902191346 | 70 | 114 | 4.0 | 7.0 | 0.00 | 0.42 | 0.42 | 95 | 1018.4 |
| 20260902190836 | 70 | 130 | 3.0 | 3.0 | 0.00 | 0.42 | 0.42 | 95 | 1018.5 |
| 20260902190335 | 70 | 130 | 4.0 | 5.0 | 0.00 | 0.42 | 0.42 | 95 | 1018.4 |
| 20260902185832 | 70 | 111 | 5.0 | 6.0 | 0.00 | 0.42 | 0.42 | 95 | 1018.5 |
| 20260902185327 | 70 | 151 | 2.0 | 2.0 | 0.00 | 0.42 | 0.42 | 95 | 1018.3 |
| 20260902184823 | 70 | 120 | 6.0 | 8.0 | 0.00 | 0.42 | 0.42 | 95 | 1018.4 |
| 20260902184318 | 70 | 167 | 3.0 | 5.0 | 0.00 | 0.42 | 0.42 | 95 | 1018.6 |
| 20260902183813 | 70 | 92 | 6.0 | 8.0 | 0.00 | 0.42 | 0.42 | 95 | 1018.4 |
| 20260902183309 | 70 | 123 | 6.0 | 7.0 | 0.00 | 0.42 | 0.42 | 95 | 1018.4 |
| 20260902182805 | 70 | 152 | 5.0 | 8.0 | 0.00 | 0.42 | 0.42 | 95 | 1018.3 |
| 20260902182305 | 71 | 103 | 5.0 | 8.0 | 0.00 | 0.42 | 0.42 | 95 | 1018.7 |
| 20260902181757 | 71 | 186 | 4.0 | 5.0 | 0.00 | 0.42 | 0.42 | 95 | 1018.4 |
| 20260902181252 | 71 | 114 | 3.0 | 6.0 | 0.00 | 0.42 | 0.42 | 95 | 1018.4 |
| 20260902180747 | 71 | 109 | 8.0 | 9.0 | 0.00 | 0.42 | 0.42 | 95 | 1018.7 |
| 20260902180242 | 71 | 165 | 4.0 | 5.0 | 0.00 | 0.42 | 0.42 | 95 | 1018.9 |
| 20260902175737 | 71 | 109 | 2.0 | 3.0 | 0.00 | 0.42 | 0.42 | 95 | 1018.9 |
| 20260902175233 | 71 | 114 | 5.0 | 7.0 | 0.00 | 0.42 | 0.42 | 95 | 1018.9 |
| 20260902174729 | 70 | 101 | 4.0 | 6.0 | 0.00 | 0.42 | 0.42 | 95 | 1019.0 |
| 20260902174224 | 70 | 137 | 7.0 | 10.0 | 0.00 | 0.42 | 0.42 | 95 | 1019.1 |
| 20260902173719 | 69 | 116 | 2.0 | 3.0 | 0.00 | 0.42 | 0.42 | 95 | 1019.1 |
| 20260902173214 | 69 | 91 | 3.0 | 5.0 | 0.00 | 0.42 | 0.42 | 95 | 1019.2 |
| 20260902172709 | 69 | 119 | 5.0 | 5.0 | 0.00 | 0.42 | 0.42 | 95 | 1019.3 |
| 20260902172208 | 69 | 125 | 7.0 | 10.0 | 0.00 | 0.42 | 0.42 | 95 | 1019.4 |
| 20260902171703 | 69 | 165 | 9.0 | 13.0 | 0.00 | 0.42 | 0.42 | 95 | 1019.4 |
| 20260902171159 | 69 | 73 | 4.0 | 6.0 | 0.00 | 0.42 | 0.42 | 95 | 1019.7 |
| 20260902170655 | 69 | 125 | 5.0 | 9.0 | 0.00 | 0.42 | 0.42 | 95 | 1019.4 |
| 20260902170149 | 69 | 97 | 5.0 | 8.0 | 0.00 | 0.42 | 0.42 | 95 | 1019.6 |
| 20260902165644 | 68 | 135 | 5.0 | 7.0 | 0.00 | 0.42 | 0.42 | 95 | 1019.4 |
| 20260902165138 | 69 | 139 | 3.0 | 3.0 | 0.00 | 0.42 | 0.42 | 95 | 1019.5 |
| 20260902164634 | 68 | 125 | 6.0 | 8.0 | 0.00 | 0.42 | 0.42 | 95 | 1019.3 |
| 20260902164133 | 69 | 166 | 4.0 | 5.0 | 0.00 | 0.42 | 0.42 | 95 | 1019.5 |
| 20260902163628 | 69 | 106 | 5.0 | 6.0 | 0.00 | 0.42 | 0.42 | 95 | 1019.8 |
| 20260902163127 | 69 | 121 | 4.0 | 5.0 | 0.00 | 0.42 | 0.42 | 95 | 1019.7 |
| 20260902162626 | 69 | 116 | 7.0 | 9.0 | 0.00 | 0.42 | 0.42 | 95 | 1020.1 |
| 20260902162121 | 69 | 122 | 4.0 | 5.0 | 0.00 | 0.42 | 0.42 | 95 | 1020.2 |
| 20260902161616 | 69 | 111 | 2.0 | 2.0 | 0.00 | 0.42 | 0.42 | 95 | 1020.1 |
| 20260902161112 | 69 | 129 | 1.0 | 2.0 | 0.00 | 0.42 | 0.42 | 95 | 1019.7 |
| 20260902160609 | 69 | 120 | 0.0 | 1.0 | 0.00 | 0.42 | 0.42 | 95 | 1019.7 |
| 20260902160103 | 69 | 122 | 0.0 | 0.0 | 0.00 | 0.42 | 0.42 | 95 | 1019.2 |
| 20260902155602 | 69 | 74 | 1.0 | 2.0 | 0.00 | 0.42 | 0.42 | 95 | 1019.5 |
| 20260902155100 | 70 | 119 | 5.0 | 6.0 | 0.07 | 0.42 | 0.42 | 95 | 1019.3 |
| 20260902154556 | 69 | 109 | 9.0 | 11.0 | 0.12 | 0.42 | 0.42 | 95 | 1019.1 |
| 20260902154050 | 69 | 88 | 2.0 | 5.0 | 0.24 | 0.41 | 0.41 | 95 | 1019.3 |
| 20260902153549 | 70 | 91 | 0.0 | 1.0 | 0.19 | 0.39 | 0.39 | 95 | 1019.5 |
| 20260902153045 | 70 | 44 | 1.0 | 2.0 | 0.07 | 0.37 | 0.37 | 95 | 1019.7 |
| 20260902152541 | 70 | 96 | 1.0 | 2.0 | 0.12 | 0.36 | 0.36 | 95 | 1019.8 |
| 20260902152036 | 70 | 123 | 2.0 | 2.0 | 0.19 | 0.35 | 0.35 | 95 | 1019.6 |
| 20260902151532 | 70 | 137 | 0.0 | 0.0 | 0.24 | 0.34 | 0.34 | 95 | 1019.6 |
| 20260902151031 | 70 | 146 | 0.0 | 0.0 | 0.35 | 0.32 | 0.32 | 95 | 1019.6 |
| 20260902150527 | 70 | 302 | 2.0 | 2.0 | 0.35 | 0.30 | 0.30 | 95 | 1019.4 |
| 20260902150022 | 70 | 157 | 0.0 | 0.0 | 0.12 | 0.25 | 0.25 | 95 | 1019.0 |
| 20260902145517 | 70 | 159 | 0.0 | 0.0 | 0.12 | 0.24 | 0.24 | 95 | 1019.1 |
| 20260902145017 | 70 | 107 | 1.0 | 1.0 | 0.24 | 0.23 | 0.23 | 95 | 1018.8 |
| 20260902144513 | 70 | 88 | 0.0 | 1.0 | 0.66 | 0.22 | 0.22 | 95 | 1018.4 |
| 20260902144008 | 70 | 120 | 6.0 | 8.0 | 0.66 | 0.19 | 0.19 | 95 | 1018.6 |
| 20260902143503 | 71 | 174 | 3.0 | 6.0 | 0.24 | 0.11 | 0.11 | 95 | 1019.5 |
| 20260902142958 | 71 | 155 | 3.0 | 3.0 | 0.12 | 0.08 | 0.08 | 95 | 1018.9 |
| 20260902142454 | 71 | 169 | 1.0 | 1.0 | 0.07 | 0.07 | 0.07 | 95 | 1018.8 |
| 20260902141949 | 71 | 115 | 1.0 | 2.0 | 0.12 | 0.06 | 0.06 | 95 | 1018.8 |
| 20260902141443 | 71 | 124 | 3.0 | 3.0 | 0.12 | 0.05 | 0.05 | 95 | 1018.7 |
| 20260902140938 | 72 | 151 | 0.0 | 0.0 | 0.24 | 0.04 | 0.04 | 95 | 1018.9 |
| 20260902140433 | 72 | 145 | 2.0 | 2.0 | 0.19 | 0.03 | 0.03 | 95 | 1019.2 |
| 20260902135932 | 72 | 131 | 1.0 | 2.0 | 0.00 | 0.00 | 0.00 | 95 | 1019.2 |
| 20260902135428 | 72 | 137 | 3.0 | 3.0 | 0.00 | 0.00 | 0.00 | 95 | 1019.4 |
| 20260902134927 | 72 | 149 | 0.0 | 1.0 | 0.00 | 0.00 | 0.00 | 95 | 1019.5 |
| 20260902134423 | 72 | 95 | 3.0 | 3.0 | 0.00 | 0.00 | 0.00 | 95 | 1019.6 |
| 20260902133918 | 72 | 135 | 2.0 | 2.0 | 0.00 | 0.00 | 0.00 | 95 | 1019.5 |
| 20260902133413 | 72 | 126 | 2.0 | 3.0 | 0.00 | 0.00 | 0.00 | 95 | 1019.5 |
| 20260902132908 | 72 | 182 | 1.0 | 2.0 | 0.00 | 0.00 | 0.00 | 95 | 1019.4 |
| 20260902132403 | 72 | 162 | 4.0 | 6.0 | 0.00 | 0.00 | 0.00 | 95 | 1018.8 |
| 20260902131858 | 72 | 122 | 2.0 | 2.0 | 0.00 | 0.00 | 0.00 | 95 | 1018.6 |
| 20260902131355 | 72 | 110 | 2.0 | 3.0 | 0.00 | 0.00 | 0.00 | 95 | 1018.9 |
| 20260902130854 | 71 | 102 | 3.0 | 3.0 | 0.00 | 0.00 | 0.00 | 95 | 1019.0 |
| 20260902130350 | 71 | 130 | 0.0 | 0.0 | 0.00 | 0.00 | 0.00 | 95 | 1018.9 |
| 20260902125844 | 71 | 148 | 0.0 | 0.0 | 0.00 | 0.00 | 0.00 | 95 | 1019.0 |
| 20260902125340 | 71 | 127 | 2.0 | 2.0 | 0.00 | 0.00 | 0.00 | 95 | 1018.9 |
| 20260902124836 | 71 | 133 | 3.0 | 3.0 | 0.00 | 0.00 | 0.00 | 95 | 1018.8 |
| 20260902124332 | 71 | 135 | 1.0 | 2.0 | 0.00 | 0.00 | 0.00 | 95 | 1018.8 |
| 20260902123827 | 71 | 113 | 0.0 | 0.0 | 0.00 | 0.00 | 0.00 | 95 | 1019.0 |
| 20260902123324 | 71 | 178 | 2.0 | 3.0 | 0.00 | 0.00 | 0.00 | 95 | 1018.8 |
| 20260902122822 | 71 | 171 | 1.0 | 1.0 | 0.00 | 0.00 | 0.00 | 95 | 1018.8 |
| 20260902122318 | 71 | 153 | 0.0 | 0.0 | 0.00 | 0.00 | 0.00 | 95 | 1018.8 |
| 20260902121818 | 71 | 103 | 3.0 | 3.0 | 0.00 | 0.00 | 0.00 | 95 | 1018.7 |
| 20260902121313 | 71 | 176 | 2.0 | 2.0 | 0.00 | 0.00 | 0.00 | 95 | 1018.6 |
| 20260902120809 | 71 | 152 | 1.0 | 2.0 | 0.00 | 0.00 | 0.00 | 95 | 1018.6 |
| 20260902120305 | 71 | 127 | 1.0 | 1.0 | 0.00 | 0.00 | 0.00 | 95 | 1018.7 |
| 20260902115759 | 71 | 140 | 1.0 | 2.0 | 0.00 | 0.00 | 0.00 | 95 | 1018.5 |
| 20260902115255 | 71 | 111 | 4.0 | 6.0 | 0.00 | 0.00 | 0.00 | 95 | 1018.5 |
| 20260902114751 | 70 | 118 | 3.0 | 5.0 | 0.00 | 0.00 | 0.00 | 95 | 1018.7 |
| 20260902114248 | 70 | 113 | 4.0 | 6.0 | 0.00 | 0.00 | 0.00 | 95 | 1018.4 |
| 20260902113742 | 70 | 124 | 3.0 | 3.0 | 0.00 | 0.00 | 0.00 | 95 | 1018.4 |
| 20260902113237 | 70 | 138 | 2.0 | 2.0 | 0.00 | 0.00 | 0.00 | 95 | 1018.4 |
| 20260902112736 | 70 | 141 | 1.0 | 2.0 | 0.00 | 0.00 | 0.00 | 95 | 1018.6 |
| 20260902112234 | 70 | 119 | 2.0 | 2.0 | 0.00 | 0.00 | 0.00 | 95 | 1018.2 |
| 20260902111729 | 70 | 115 | 2.0 | 2.0 | 0.00 | 0.00 | 0.00 | 95 | 1018.5 |
| 20260902111225 | 70 | 130 | 0.0 | 0.0 | 0.00 | 0.00 | 0.00 | 95 | 1018.3 |
| 20260902110721 | 70 | 118 | 3.0 | 3.0 | 0.00 | 0.00 | 0.00 | 95 | 1018.3 |
| 20260902110217 | 70 | 142 | 1.0 | 2.0 | 0.00 | 0.00 | 0.00 | 95 | 1018.3 |
| 20260902105716 | 70 | 112 | 2.0 | 2.0 | 0.00 | 0.00 | 0.00 | 95 | 1018.1 |
| 20260902105211 | 70 | 119 | 1.0 | 2.0 | 0.00 | 0.00 | 0.00 | 95 | 1018.3 |
| 20260902104707 | 70 | 146 | 0.0 | 0.0 | 0.00 | 0.00 | 0.00 | 95 | 1018.4 |
| 20260902104203 | 70 | 129 | 0.0 | 0.0 | 0.00 | 0.00 | 0.00 | 95 | 1018.3 |
| 20260902103701 | 70 | 128 | 0.0 | 0.0 | 0.00 | 0.00 | 0.00 | 95 | 1018.5 |
| 20260902103157 | 70 | 152 | 0.0 | 0.0 | 0.00 | 0.00 | 0.00 | 95 | 1018.8 |
| 20260902102653 | 70 | 142 | 0.0 | 0.0 | 0.00 | 0.00 | 0.00 | 95 | 1018.5 |
| 20260902102150 | 70 | 137 | 0.0 | 0.0 | 0.00 | 0.00 | 0.00 | 95 | 1018.7 |
| 20260902101645 | 70 | 153 | 0.0 | 0.0 | 0.00 | 0.00 | 0.00 | 95 | 1018.7 |
| 20260902101144 | 70 | 97 | 2.0 | 2.0 | 0.00 | 0.00 | 0.00 | 95 | 1018.5 |
| 20260902100639 | 70 | 149 | 0.0 | 0.0 | 0.00 | 0.00 | 0.00 | 95 | 1018.5 |
| 20260902100134 | 70 | 167 | 0.0 | 0.0 | 0.00 | 0.00 | 0.00 | 95 | 1018.7 |
| 20260902095633 | 70 | 133 | 0.0 | 0.0 | 0.00 | 0.00 | 0.00 | 95 | 1018.6 |
| 20260902095133 | 70 | 159 | 0.0 | 0.0 | 0.00 | 0.00 | 0.00 | 95 | 1018.7 |
| 20260902094627 | 70 | 146 | 0.0 | 0.0 | 0.00 | 0.00 | 0.00 | 95 | 1018.5 |
| 20260902094124 | 69 | 161 | 0.0 | 0.0 | 0.00 | 0.00 | 0.00 | 95 | 1018.5 |
| 20260902093618 | 69 | 160 | 0.0 | 0.0 | 0.00 | 0.00 | 0.00 | 95 | 1018.7 |
| 20260902093112 | 69 | 154 | 0.0 | 0.0 | 0.00 | 0.00 | 0.00 | 95 | 1018.5 |
| 20260902092606 | 69 | 160 | 0.0 | 0.0 | 0.00 | 0.00 | 0.00 | 95 | 1018.5 |
| 20260902092101 | 69 | 151 | 0.0 | 0.0 | 0.00 | 0.00 | 0.00 | 95 | 1018.6 |
| 20260902091557 | 69 | 151 | 0.0 | 0.0 | 0.00 | 0.00 | 0.00 | 95 | 1018.7 |
| 20260902091052 | 69 | 152 | 0.0 | 0.0 | 0.00 | 0.00 | 0.00 | 95 | 1018.5 |
| 20260902090548 | 69 | 152 | 0.0 | 0.0 | 0.00 | 0.00 | 0.00 | 95 | 1018.4 |
| 20260902090047 | 69 | 157 | 0.0 | 0.0 | 0.00 | 0.00 | 0.00 | 95 | 1018.5 |
| 20260902085541 | 69 | 157 | 0.0 | 0.0 | 0.00 | 0.00 | 0.00 | 95 | 1018.7 |
| 20260902085037 | 69 | 157 | 0.0 | 0.0 | 0.00 | 0.00 | 0.00 | 95 | 1018.6 |
| 20260902084534 | 69 | 160 | 0.0 | 0.0 | 0.00 | 0.00 | 0.00 | 95 | 1018.7 |
| 20260902084029 | 69 | 155 | 0.0 | 0.0 | 0.00 | 0.00 | 0.00 | 95 | 1018.7 |
| 20260902083519 | 69 | 141 | 0.0 | 0.0 | 0.00 | 0.00 | 0.00 | 95 | 1018.7 |
| 20260902083013 | 69 | 156 | 0.0 | 0.0 | 0.00 | 0.00 | 0.00 | 95 | 1018.6 |
| 20260902082509 | 69 | 140 | 0.0 | 0.0 | 0.00 | 0.00 | 0.00 | 95 | 1018.4 |
| 20260902082005 | 69 | 152 | 0.0 | 0.0 | 0.00 | 0.00 | 0.00 | 95 | 1018.5 |
| 20260902081502 | 69 | 130 | 1.0 | 1.0 | 0.00 | 0.00 | 0.00 | 95 | 1018.5 |
| 20260902081001 | 69 | 146 | 0.0 | 0.0 | 0.00 | 0.00 | 0.00 | 95 | 1018.5 |
| 20260902080457 | 69 | 152 | 0.0 | 0.0 | 0.00 | 0.00 | 0.00 | 95 | 1018.4 |
| 20260902075956 | 69 | 119 | 1.0 | 2.0 | 0.00 | 0.00 | 0.00 | 95 | 1018.4 |
| 20260902075453 | 69 | 127 | 1.0 | 1.0 | 0.00 | 0.00 | 0.00 | 95 | 1018.3 |
| 20260902074949 | 69 | 142 | 0.0 | 1.0 | 0.00 | 0.00 | 0.00 | 95 | 1018.4 |
| 20260902074444 | 69 | 138 | 0.0 | 0.0 | 0.00 | 0.00 | 0.00 | 95 | 1018.2 |
| 20260902073938 | 69 | 144 | 1.0 | 2.0 | 0.00 | 0.00 | 0.00 | 95 | 1018.4 |
| 20260902073434 | 69 | 141 | 0.0 | 0.0 | 0.00 | 0.00 | 0.00 | 95 | 1018.4 |
| 20260902072930 | 69 | 124 | 0.0 | 0.0 | 0.00 | 0.00 | 0.00 | 95 | 1018.4 |
| 20260902072426 | 69 | 137 | 0.0 | 0.0 | 0.00 | 0.00 | 0.00 | 95 | 1018.3 |
| 20260902071922 | 69 | 144 | 1.0 | 2.0 | 0.00 | 0.00 | 0.00 | 95 | 1018.3 |
| 20260902071421 | 69 | 162 | 0.0 | 0.0 | 0.00 | 0.00 | 0.00 | 95 | 1018.2 |
| 20260902070918 | 69 | 142 | 0.0 | 0.0 | 0.00 | 0.00 | 0.00 | 95 | 1018.0 |
| 20260902070414 | 69 | 131 | 1.0 | 2.0 | 0.00 | 0.00 | 0.00 | 95 | 1018.1 |
| 20260902065912 | 69 | 133 | 0.0 | 0.0 | 0.00 | 0.00 | 0.00 | 95 | 1018.1 |
| 20260902065408 | 69 | 157 | 0.0 | 0.0 | 0.00 | 0.00 | 0.00 | 95 | 1018.4 |
| 20260902064903 | 69 | 156 | 0.0 | 0.0 | 0.00 | 0.00 | 0.00 | 95 | 1018.7 |
| 20260902064358 | 69 | 150 | 0.0 | 0.0 | 0.00 | 0.00 | 0.00 | 95 | 1018.5 |
| 20260902063854 | 69 | 150 | 0.0 | 0.0 | 0.00 | 0.00 | 0.00 | 95 | 1018.7 |
| 20260902063349 | 69 | 147 | 0.0 | 0.0 | 0.00 | 0.00 | 0.00 | 95 | 1018.3 |
| 20260902062848 | 69 | 164 | 0.0 | 0.0 | 0.00 | 0.00 | 0.00 | 95 | 1018.6 |
| 20260902062343 | 69 | 166 | 0.0 | 0.0 | 0.00 | 0.00 | 0.00 | 95 | 1018.5 |
| 20260902061842 | 69 | 166 | 0.0 | 0.0 | 0.00 | 0.00 | 0.00 | 95 | 1018.7 |
| 20260902061338 | 69 | 167 | 0.0 | 0.0 | 0.00 | 0.00 | 0.00 | 95 | 1018.5 |
| 20260902060834 | 69 | 167 | 0.0 | 0.0 | 0.00 | 0.00 | 0.00 | 95 | 1018.6 |
| 20260902060329 | 69 | 167 | 0.0 | 0.0 | 0.00 | 0.00 | 0.00 | 95 | 1018.7 |
| 20260902055825 | 69 | 167 | 0.0 | 0.0 | 0.00 | 0.00 | 0.00 | 95 | 1018.7 |
| 20260902055321 | 70 | 166 | 0.0 | 0.0 | 0.00 | 0.00 | 0.00 | 95 | 1018.5 |
| 20260902054816 | 70 | 152 | 0.0 | 0.0 | 0.00 | 0.00 | 0.00 | 95 | 1018.5 |
| 20260902054312 | 70 | 151 | 0.0 | 0.0 | 0.00 | 0.00 | 0.00 | 95 | 1018.3 |
| 20260902053807 | 70 | 140 | 0.0 | 0.0 | 0.00 | 0.00 | 0.00 | 95 | 1018.5 |
| 20260902053301 | 69 | 136 | 0.0 | 0.0 | 0.00 | 0.00 | 0.00 | 95 | 1018.5 |
| 20260902052800 | 69 | 144 | 0.0 | 0.0 | 0.00 | 0.00 | 0.00 | 95 | 1018.6 |
| 20260902052255 | 69 | 158 | 0.0 | 0.0 | 0.00 | 0.00 | 0.00 | 95 | 1018.7 |
| 20260902051749 | 69 | 129 | 0.0 | 0.0 | 0.00 | 0.00 | 0.00 | 95 | 1018.3 |
| 20260902051244 | 69 | 155 | 0.0 | 0.0 | 0.00 | 0.00 | 0.00 | 95 | 1018.4 |
| 20260902050739 | 69 | 156 | 0.0 | 0.0 | 0.00 | 0.00 | 0.00 | 95 | 1018.5 |
| 20260902050228 | 69 | 155 | 0.0 | 0.0 | 0.00 | 0.00 | 0.00 | 95 | 1018.3 |
| 20260902045728 | 69 | 154 | 0.0 | 0.0 | 0.00 | 0.00 | 0.00 | 95 | 1018.3 |
| 20260902045224 | 70 | 153 | 0.0 | 0.0 | 0.00 | 0.00 | 0.00 | 95 | 1018.2 |
| 20260902044720 | 70 | 153 | 0.0 | 0.0 | 0.00 | 0.00 | 0.00 | 95 | 1018.2 |
| 20260902044215 | 70 | 153 | 0.0 | 0.0 | 0.00 | 0.00 | 0.00 | 95 | 1018.2 |
| 20260902043710 | 70 | 151 | 0.0 | 0.0 | 0.00 | 0.00 | 0.00 | 95 | 1018.1 |
| 20260902043205 | 70 | 149 | 0.0 | 0.0 | 0.00 | 0.00 | 0.00 | 95 | 1018.3 |
| 20260902042659 | 70 | 149 | 0.0 | 0.0 | 0.00 | 0.00 | 0.00 | 95 | 1018.0 |
| 20260902042154 | 70 | 156 | 0.0 | 0.0 | 0.00 | 0.00 | 0.00 | 95 | 1017.8 |
| 20260902041654 | 70 | 156 | 0.0 | 0.0 | 0.00 | 0.00 | 0.00 | 95 | 1018.0 |
| 20260902041148 | 70 | 156 | 0.0 | 0.0 | 0.00 | 0.00 | 0.00 | 95 | 1018.0 |
| 20260902040642 | 70 | 156 | 0.0 | 0.0 | 0.00 | 0.00 | 0.00 | 95 | 1017.7 |
| 20260902040138 | 70 | 156 | 0.0 | 0.0 | 0.00 | 0.00 | 0.00 | 95 | 1017.9 |
| 20260902035636 | 70 | 181 | 0.0 | 0.0 | 0.00 | 0.43 | 0.43 | 95 | 1017.9 |
| 20260902035132 | 70 | 183 | 0.0 | 0.0 | 0.00 | 0.43 | 0.43 | 95 | 1018.0 |
| 20260902034631 | 70 | 183 | 0.0 | 0.0 | 0.00 | 0.43 | 0.43 | 95 | 1017.7 |
| 20260902034130 | 70 | 183 | 0.0 | 0.0 | 0.00 | 0.43 | 0.43 | 95 | 1017.6 |
| 20260902033630 | 70 | 182 | 0.0 | 0.0 | 0.00 | 0.43 | 0.43 | 95 | 1017.8 |
| 20260902033125 | 70 | 167 | 0.0 | 0.0 | 0.00 | 0.43 | 0.43 | 95 | 1017.7 |
| 20260902032623 | 70 | 168 | 0.0 | 0.0 | 0.00 | 0.43 | 0.43 | 95 | 1017.6 |
| 20260902032118 | 70 | 162 | 0.0 | 0.0 | 0.00 | 0.43 | 0.43 | 95 | 1017.6 |
| 20260902031613 | 70 | 138 | 0.0 | 0.0 | 0.00 | 0.43 | 0.43 | 95 | 1017.8 |
| 20260902031110 | 70 | 146 | 0.0 | 0.0 | 0.00 | 0.43 | 0.43 | 95 | 1017.8 |
| 20260902030609 | 70 | 147 | 0.0 | 0.0 | 0.00 | 0.43 | 0.43 | 95 | 1017.9 |
| 20260902030103 | 70 | 147 | 0.0 | 0.0 | 0.00 | 0.43 | 0.43 | 95 | 1017.9 |
| 20260902025558 | 70 | 147 | 0.0 | 0.0 | 0.00 | 0.43 | 0.43 | 95 | 1017.8 |
| 20260902025053 | 71 | 148 | 0.0 | 0.0 | 0.00 | 0.43 | 0.43 | 95 | 1018.0 |
| 20260902024549 | 71 | 149 | 0.0 | 0.0 | 0.00 | 0.43 | 0.43 | 95 | 1017.7 |
| 20260902024048 | 71 | 120 | 0.0 | 0.0 | 0.00 | 0.43 | 0.43 | 95 | 1017.8 |
| 20260902023544 | 71 | 154 | 0.0 | 0.0 | 0.00 | 0.43 | 0.43 | 95 | 1018.0 |
| 20260902023039 | 71 | 158 | 0.0 | 0.0 | 0.00 | 0.43 | 0.43 | 95 | 1017.8 |
| 20260902022539 | 71 | 158 | 0.0 | 0.0 | 0.00 | 0.43 | 0.43 | 95 | 1017.9 |
| 20260902022035 | 71 | 158 | 0.0 | 0.0 | 0.00 | 0.43 | 0.43 | 95 | 1017.7 |
| 20260902021530 | 71 | 152 | 0.0 | 0.0 | 0.00 | 0.43 | 0.43 | 95 | 1017.8 |
| 20260902021031 | 71 | 146 | 0.0 | 0.0 | 0.00 | 0.43 | 0.43 | 95 | 1017.7 |
| 20260902020526 | 71 | 144 | 0.0 | 0.0 | 0.00 | 0.43 | 0.43 | 95 | 1017.5 |
| 20260902020022 | 71 | 135 | 0.0 | 0.0 | 0.00 | 0.43 | 0.43 | 95 | 1017.6 |
| 20260902015518 | 71 | 136 | 0.0 | 0.0 | 0.00 | 0.43 | 0.43 | 95 | 1017.5 |
| 20260902015013 | 71 | 136 | 0.0 | 0.0 | 0.00 | 0.43 | 0.43 | 95 | 1017.8 |
| 20260902014510 | 71 | 136 | 0.0 | 0.0 | 0.00 | 0.43 | 0.43 | 95 | 1017.7 |
| 20260902014004 | 71 | 137 | 0.0 | 0.0 | 0.00 | 0.43 | 0.43 | 95 | 1017.5 |
| 20260902013458 | 71 | 136 | 0.0 | 0.0 | 0.00 | 0.43 | 0.43 | 95 | 1017.3 |
| 20260902012953 | 71 | 136 | 0.0 | 0.0 | 0.00 | 0.43 | 0.43 | 95 | 1017.3 |
| 20260902012444 | 71 | 136 | 0.0 | 0.0 | 0.00 | 0.43 | 0.43 | 95 | 1017.3 |
| 20260902011939 | 71 | 137 | 0.0 | 0.0 | 0.00 | 0.43 | 0.43 | 95 | 1017.5 |
| 20260902011435 | 72 | 137 | 0.0 | 0.0 | 0.00 | 0.43 | 0.43 | 95 | 1017.2 |
| 20260902010934 | 72 | 137 | 0.0 | 0.0 | 0.00 | 0.43 | 0.43 | 95 | 1017.1 |
| 20260902010429 | 72 | 137 | 0.0 | 0.0 | 0.00 | 0.43 | 0.43 | 95 | 1017.1 |
| 20260902005928 | 72 | 137 | 0.0 | 0.0 | 0.00 | 0.43 | 0.43 | 95 | 1017.0 |
| 20260902005427 | 72 | 137 | 0.0 | 0.0 | 0.00 | 0.43 | 0.43 | 95 | 1017.1 |
| 20260902004923 | 72 | 137 | 0.0 | 0.0 | 0.00 | 0.43 | 0.43 | 95 | 1016.8 |
| 20260902004422 | 73 | 137 | 0.0 | 0.0 | 0.00 | 0.43 | 0.43 | 95 | 1016.5 |
| 20260902003918 | 73 | 137 | 0.0 | 0.0 | 0.00 | 0.43 | 0.43 | 95 | 1016.9 |
| 20260902003413 | 73 | 137 | 0.0 | 0.0 | 0.00 | 0.43 | 0.43 | 95 | 1016.8 |
| 20260902002909 | 73 | 137 | 0.0 | 0.0 | 0.00 | 0.43 | 0.43 | 95 | 1016.4 |
| 20260902002408 | 73 | 136 | 0.0 | 0.0 | 0.00 | 0.43 | 0.43 | 95 | 1016.8 |
| 20260902001903 | 73 | 136 | 0.0 | 0.0 | 0.00 | 0.43 | 0.43 | 94 | 1016.2 |
| 20260902001358 | 73 | 144 | 0.0 | 0.0 | 0.00 | 0.43 | 0.43 | 94 | 1016.4 |
| 20260902000854 | 74 | 144 | 0.0 | 0.0 | 0.00 | 0.43 | 0.43 | 94 | 1016.2 |
| 20260902000353 | 74 | 143 | 0.0 | 1.0 | 0.00 | 0.43 | 0.43 | 94 | 1016.3 |
| 20260901235848 | 74 | 150 | 1.0 | 1.0 | 0.00 | 0.43 | 0.43 | 93 | 1016.3 |
| 20260901235343 | 74 | 154 | 0.0 | 0.0 | 0.00 | 0.43 | 0.43 | 93 | 1016.1 |
| 20260901234838 | 74 | 138 | 0.0 | 0.0 | 0.00 | 0.43 | 0.43 | 93 | 1016.1 |
| 20260901234332 | 74 | 131 | 1.0 | 1.0 | 0.00 | 0.43 | 0.43 | 92 | 1016.1 |
| 20260901233827 | 74 | 119 | 1.0 | 1.0 | 0.00 | 0.43 | 0.43 | 92 | 1016.4 |
| 20260901233323 | 75 | 147 | 0.0 | 1.0 | 0.00 | 0.43 | 0.43 | 91 | 1016.1 |
| 20260901232819 | 75 | 154 | 0.0 | 0.0 | 0.00 | 0.43 | 0.43 | 90 | 1016.2 |
| 20260901232313 | 75 | 160 | 0.0 | 0.0 | 0.00 | 0.43 | 0.43 | 90 | 1015.8 |
| 20260901231810 | 76 | 140 | 1.0 | 1.0 | 0.00 | 0.43 | 0.43 | 88 | 1015.7 |
| 20260901231306 | 77 | 142 | 0.0 | 0.0 | 0.00 | 0.43 | 0.43 | 88 | 1016.1 |
| 20260901230802 | 77 | 142 | 0.0 | 0.0 | 0.00 | 0.43 | 0.43 | 87 | 1015.8 |
| 20260901230301 | 77 | 141 | 0.0 | 1.0 | 0.00 | 0.43 | 0.43 | 86 | 1016.0 |
| 20260901225756 | 78 | 149 | 0.0 | 0.0 | 0.00 | 0.43 | 0.43 | 85 | 1016.1 |
| 20260901225250 | 78 | 147 | 1.0 | 1.0 | 0.00 | 0.43 | 0.43 | 85 | 1016.1 |
| 20260901224746 | 79 | 143 | 0.0 | 1.0 | 0.00 | 0.43 | 0.43 | 84 | 1016.2 |
| 20260901224242 | 79 | 237 | 1.0 | 1.0 | 0.00 | 0.43 | 0.43 | 84 | 1016.1 |
| 20260901223738 | 79 | 185 | 1.0 | 1.0 | 0.00 | 0.43 | 0.43 | 83 | 1015.9 |
| 20260901223238 | 79 | 125 | 1.0 | 1.0 | 0.00 | 0.43 | 0.43 | 83 | 1015.9 |
| 20260901222734 | 79 | 85 | 1.0 | 2.0 | 0.00 | 0.43 | 0.43 | 82 | 1015.8 |
| 20260901222230 | 79 | 132 | 1.0 | 1.0 | 0.00 | 0.43 | 0.43 | 82 | 1015.9 |
| 20260901221726 | 80 | 165 | 0.0 | 0.0 | 0.00 | 0.43 | 0.43 | 82 | 1015.9 |
| 20260901221222 | 80 | 188 | 1.0 | 2.0 | 0.00 | 0.43 | 0.43 | 82 | 1016.0 |
| 20260901220720 | 80 | 191 | 0.0 | 0.0 | 0.00 | 0.43 | 0.43 | 82 | 1016.0 |
| 20260901220215 | 80 | 216 | 2.0 | 2.0 | 0.00 | 0.43 | 0.43 | 81 | 1015.9 |
| 20260901215714 | 80 | 302 | 3.0 | 3.0 | 0.00 | 0.43 | 0.43 | 80 | 1016.2 |
| 20260901215208 | 81 | 231 | 2.0 | 2.0 | 0.00 | 0.43 | 0.43 | 80 | 1016.0 |
| 20260901214706 | 81 | 178 | 0.0 | 0.0 | 0.00 | 0.43 | 0.43 | 81 | 1016.0 |
| 20260901214200 | 81 | 149 | 0.0 | 0.0 | 0.00 | 0.43 | 0.43 | 81 | 1015.8 |
| 20260901213655 | 80 | 147 | 0.0 | 0.0 | 0.00 | 0.43 | 0.43 | 83 | 1015.8 |
| 20260901213150 | 80 | 136 | 0.0 | 0.0 | 0.00 | 0.43 | 0.43 | 84 | 1016.0 |
| 20260901212649 | 80 | 26 | 2.0 | 2.0 | 0.00 | 0.43 | 0.43 | 82 | 1015.9 |
| 20260901212145 | 80 | 193 | 0.0 | 0.0 | 0.00 | 0.43 | 0.43 | 83 | 1015.6 |
| 20260901211640 | 80 | 188 | 1.0 | 1.0 | 0.00 | 0.43 | 0.43 | 83 | 1015.7 |
| 20260901211136 | 80 | 129 | 1.0 | 1.0 | 0.00 | 0.43 | 0.43 | 83 | 1015.6 |
| 20260901210632 | 80 | 175 | 0.0 | 0.0 | 0.00 | 0.43 | 0.43 | 84 | 1015.7 |
| 20260901210127 | 80 | 193 | 0.0 | 1.0 | 0.00 | 0.43 | 0.43 | 84 | 1015.7 |
| 20260901205618 | 79 | 189 | 0.0 | 0.0 | 0.00 | 0.43 | 0.43 | 85 | 1015.8 |
| 20260901205117 | 80 | 125 | 0.0 | 1.0 | 0.00 | 0.43 | 0.43 | 85 | 1015.8 |
| 20260901204614 | 80 | 200 | 1.0 | 1.0 | 0.00 | 0.43 | 0.43 | 84 | 1015.7 |
| 20260901204114 | 80 | 168 | 0.0 | 0.0 | 0.00 | 0.43 | 0.43 | 85 | 1015.9 |
| 20260901203613 | 79 | 198 | 1.0 | 2.0 | 0.00 | 0.43 | 0.43 | 84 | 1015.7 |
| 20260901203108 | 79 | 231 | 2.0 | 2.0 | 0.00 | 0.43 | 0.43 | 85 | 1016.1 |
| 20260901202608 | 80 | 194 | 1.0 | 1.0 | 0.00 | 0.43 | 0.43 | 85 | 1015.7 |
| 20260901202104 | 79 | 169 | 0.0 | 0.0 | 0.00 | 0.43 | 0.43 | 86 | 1016.0 |
| 20260901201600 | 79 | 172 | 0.0 | 0.0 | 0.00 | 0.43 | 0.43 | 86 | 1016.0 |